Flag for Belarus Weather past 2 weeks in Gomel, Belarus

Now
41 °F

Low clouds.


Feels Like: 35 °F
Forecast: 34 / 39 °F
Wind: 10 mph from Southwest

Location: Gomel'

Current Time: Dec 19, 2014 at 5:50:54 PM

Latest Report: Dec 19, 2014 at 5:00 PM


Visibility: 4 mi

Pressure: 29.68 "Hg

Humidity: 100%

Dew point: 41 °F

Location of GomelLocation

Historic Weather in Gomel — Graph

°F

Gomel temperature yesterday

Maximum temperature yesterday: 34 °F (at 12:00 AM)
Minimum temperature yesterday: 32 °F (at 6:00 AM)
Average temperature yesterday: 33 °F

Past Weeks' High & Low Weather Summary

 TemperatureHumidityPressure
High41 °F (Dec 17, 2:30 PM)100% (Dec 4, 5:00 PM)30.48 "Hg (Dec 4, 5:00 PM)
Low18 °F (Dec 4, 5:00 PM)75% (Dec 13, 8:00 AM)29.65 "Hg (Dec 19, 3:00 PM)
Average30 °F94%30.08 "Hg
* Reported Dec 4 4:00 PM — Dec 19 4:30 PM, Gomel, Weather by CustomWeather, © 2014

Note: Actual official high and low records may vary slightly from our data, if they occured in-between our weather recording intervals... More about our weather records

Advertising

Gomel weather history for previous 24 hours

 ConditionsComfort  
Time TempWeatherWind HumidityBarometerVisibility
4:30 PM
Dec 19
41 °FLow clouds.13 mph93%29.65 "Hg4 mi
4:00 PM41 °FFog.15 mph93%29.65 "Hg2 mi
3:30 PM39 °FSprinkles. Low clouds.13 mph100%29.65 "Hg6 mi
3:00 PM39 °FSprinkles. Low clouds.15 mph100%29.65 "Hg6 mi
2:30 PM39 °FSprinkles. Low clouds.13 mph100%29.68 "Hg4 mi
2:00 PM39 °FSprinkles. Low clouds.15 mph100%29.68 "Hg4 mi
1:30 PM39 °FSprinkles. Low clouds.15 mph93%29.68 "Hg4 mi
1:00 PM39 °FSprinkles. Low clouds.15 mph93%29.68 "Hg6 mi
12:30 PM39 °FSprinkles. Partly sunny.13 mph93%29.68 "Hg4 mi
12:00 PM39 °FSprinkles. Fog.13 mph93%29.68 "Hg3 mi
11:30 AM37 °FSprinkles. Fog.13 mph100%29.71 "Hg3 mi
11:00 AM37 °FSprinkles. Fog.13 mph100%29.71 "Hg3 mi
10:30 AM37 °FSprinkles. Fog.10 mph100%29.71 "Hg2 mi
10:00 AM37 °FFog.10 mph100%29.74 "Hg2 mi
9:30 AM37 °FFog.15 mph93%29.74 "Hg2 mi
9:00 AM37 °FFog.15 mph93%29.74 "Hg1 mi
8:30 AM36 °FFog.15 mph100%29.77 "Hg1 mi
8:00 AM36 °FFog.15 mph100%29.77 "Hg1 mi
7:30 AM36 °FFog.10 mph100%29.80 "Hg1 mi
7:00 AM36 °FFog.10 mph100%29.80 "Hg1 mi
6:30 AM36 °FFog.10 mph93%29.80 "Hg1 mi
6:00 AM36 °FFog.10 mph93%29.83 "Hg1 mi
5:00 AM34 °FFog.10 mph100%29.83 "Hg1 mi
4:00 AM34 °FFog.10 mph100%29.83 "Hg1 mi
3:00 AM34 °FFog.8 mph100%29.86 "Hg1 mi
2:00 AM34 °FFog.10 mph100%29.86 "Hg1 mi
1:00 AM34 °FFog.10 mph93%29.86 "Hg1 mi
12:00 AM32 °FLight snow. Ice fog.10 mph100%29.86 "Hg1 mi
11:00 PM
Dec 18
32 °FLight rain. Ice fog.10 mph100%29.86 "Hg1 mi
10:45 PM32 °FLight rain. Ice fog.10 mph100%29.86 "Hg1 mi
10:00 PM32 °FLight rain. Ice fog.10 mph100%29.86 "Hg2 mi
9:00 PM32 °FLight rain. Ice fog.13 mph100%29.86 "Hg2 mi
8:00 PM32 °FLight rain. Ice fog.8 mph100%29.89 "Hg2 mi
7:30 PM32 °FIce fog.10 mph93%29.89 "Hg2 mi
7:00 PM32 °FIce fog.10 mph93%29.89 "Hg2 mi
6:30 PM32 °FIce fog.8 mph93%29.89 "Hg3 mi
6:00 PM32 °FIce fog.8 mph93%29.89 "Hg3 mi
5:30 PM32 °FIce fog.8 mph93%29.89 "Hg3 mi
5:00 PM32 °FLow clouds.8 mph93%29.89 "Hg4 mi
Weather by CustomWeather, © 2014

See weather overviewHow to use our weather pages